When you browse on this site, cookies collect data to enhance your experience and personalize the content and advertising you see.
Visit our Privacy Policy to learn more. By continuing to use the site, you agree to this use of cookies and data.
  • In Germany
  • List of Countries
  • For 7 days
  • Water Temperature
  • Weather Map
  • Weather Widgets
  • user-avatar
    Login

    Hourly Weather Kalat

    Today, 21 January, Tuesday

    Time Temperature Precipitation Wind Pressure Humidity
    00:00 -17°C° 0.2 mm 2 mps 464 mmHg 90%
    01:00 -17°C° 0.2 mm 2 mps 464 mmHg 93%
    02:00 -17°C° 0.2 mm 2 mps 464 mmHg 96%
    03:00 -18°C° 0.1 mm 2 mps 464 mmHg 95%
    04:00 -18°C° 0.1 mm 2 mps 463 mmHg 95%
    05:00 -19°C° 0.1 mm 2 mps 463 mmHg 94%
    06:00 -19°C° 0 mm 2 mps 463 mmHg 92%
    07:00 -19°C° 0 mm 2 mps 462 mmHg 90%
    08:00 -20°C° 0 mm 2 mps 462 mmHg 87%
    09:00 -18°C° 0 mm 2 mps 464 mmHg 83%
    10:00 -16°C° 0 mm 2 mps 465 mmHg 78%
    11:00 -15°C° 0 mm 2 mps 466 mmHg 74%
    12:00 -14°C° 0.1 mm 2 mps 467 mmHg 70%
    13:00 -13°C° 0.1 mm 2 mps 467 mmHg 66%
    14:00 -14°C° 0.1 mm 3 mps 467 mmHg 63%
    15:00 -15°C° 0.1 mm 3 mps 466 mmHg 69%
    16:00 -17°C° 0.1 mm 3 mps 465 mmHg 76%
    17:00 -18°C° 0.1 mm 3 mps 463 mmHg 82%
    18:00 -21°C° 0 mm 3 mps 463 mmHg 83%
    19:00 -22°C° 0 mm 3 mps 462 mmHg 84%
    20:00 -24°C° 0 mm 3 mps 462 mmHg 85%
    21:00 -24°C° 0 mm 3 mps 461 mmHg 85%
    22:00 -25°C° 0 mm 3 mps 461 mmHg 85%
    23:00 -25°C° 0 mm 3 mps 461 mmHg 84%

    Tomorrow, 22 January, Wednesday

    Time Temperature Precipitation Wind Pressure Humidity
    00:00 -26°C° 0 mm 3 mps 461 mmHg 85%
    01:00 -26°C° 0 mm 3 mps 461 mmHg 85%
    02:00 -26°C° 0 mm 3 mps 461 mmHg 86%
    03:00 -26°C° 0 mm 3 mps 461 mmHg 85%
    04:00 -25°C° 0 mm 3 mps 462 mmHg 85%
    05:00 -25°C° 0 mm 3 mps 462 mmHg 85%
    06:00 -25°C° 0 mm 3 mps 462 mmHg 85%
    07:00 -25°C° 0 mm 3 mps 462 mmHg 84%
    08:00 -26°C° 0 mm 3 mps 463 mmHg 83%
    09:00 -23°C° 0 mm 3 mps 465 mmHg 80%
    10:00 -19°C° 0 mm 3 mps 467 mmHg 76%
    11:00 -17°C° 0 mm 3 mps 469 mmHg 72%
    12:00 -15°C° 0 mm 2 mps 469 mmHg 68%
    13:00 -15°C° 0 mm 2 mps 469 mmHg 65%
    14:00 -14°C° 0 mm 2 mps 469 mmHg 61%
    15:00 -16°C° 0 mm 2 mps 468 mmHg 68%
    16:00 -16°C° 0 mm 1 mps 466 mmHg 75%
    17:00 -18°C° 0 mm 1 mps 464 mmHg 82%
    18:00 -19°C° 0 mm 1 mps 464 mmHg 81%
    19:00 -21°C° 0 mm 1 mps 463 mmHg 81%
    20:00 -22°C° 0 mm 1 mps 462 mmHg 80%
    21:00 -23°C° 0 mm 1 mps 462 mmHg 75%
    22:00 -23°C° 0 mm 1 mps 462 mmHg 70%
    23:00 -23°C° 0 mm 1 mps 462 mmHg 65%

    Day after tomorrow, 23 January, Thursday

    Time Temperature Precipitation Wind Pressure Humidity
    00:00 -24°C° 0 mm 1 mps 461 mmHg 58%
    01:00 -24°C° 0 mm 1 mps 461 mmHg 51%
    02:00 -24°C° 0 mm 1 mps 461 mmHg 43%
    03:00 -24°C° 0 mm 1 mps 461 mmHg 37%
    04:00 -24°C° 0 mm 1 mps 461 mmHg 30%
    05:00 -24°C° 0 mm 1 mps 460 mmHg 24%
    06:00 -24°C° 0 mm 1 mps 461 mmHg 22%
    07:00 -23°C° 0 mm 1 mps 461 mmHg 20%
    08:00 -23°C° 0 mm 1 mps 462 mmHg 18%
    09:00 -20°C° 0 mm 1 mps 464 mmHg 23%
    10:00 -17°C° 0 mm 1 mps 466 mmHg 29%
    11:00 -14°C° 0 mm 1 mps 468 mmHg 34%
    12:00 -13°C° 0 mm 1 mps 468 mmHg 37%
    13:00 -12°C° 0 mm 1 mps 468 mmHg 40%
    14:00 -11°C° 0 mm 1 mps 468 mmHg 42%
    15:00 -12°C° 0 mm 1 mps 467 mmHg 46%
    16:00 -14°C° 0 mm 1 mps 465 mmHg 51%
    17:00 -16°C° 0 mm 1 mps 464 mmHg 55%
    18:00 -15°C° 0 mm 1 mps 465 mmHg 54%
    19:00 -15°C° 0 mm 1 mps 465 mmHg 53%
    20:00 -17°C° 0 mm 2 mps 466 mmHg 52%
    21:00 -17°C° 0 mm 2 mps 466 mmHg 55%
    22:00 -17°C° 0 mm 2 mps 465 mmHg 57%
    23:00 -18°C° 0 mm 2 mps 465 mmHg 60%

    24 January, Friday

    Time Temperature Precipitation Wind Pressure Humidity
    00:00 -18°C° 0 mm 2 mps 465 mmHg 60%
    01:00 -18°C° 0 mm 2 mps 464 mmHg 60%
    02:00 -18°C° 0 mm 2 mps 464 mmHg 60%
    03:00 -19°C° 0 mm 3 mps 464 mmHg 59%
    04:00 -19°C° 0 mm 3 mps 464 mmHg 57%
    05:00 -18°C° 0 mm 3 mps 464 mmHg 56%
    06:00 -17°C° 0 mm 3 mps 465 mmHg 64%
    07:00 -15°C° 0 mm 3 mps 466 mmHg 71%
    08:00 -14°C° 0 mm 3 mps 467 mmHg 79%
    09:00 -14°C° 0.1 mm 4 mps 468 mmHg 80%
    10:00 -11°C° 0.1 mm 4 mps 469 mmHg 81%
    11:00 -11°C° 0.1 mm 5 mps 470 mmHg 82%
    12:00 -10°C° 0.3 mm 4 mps 469 mmHg 82%
    13:00 -9°C° 0.3 mm 4 mps 469 mmHg 83%
    14:00 -9°C° 0.3 mm 4 mps 469 mmHg 84%
    15:00 -10°C° 0.2 mm 4 mps 469 mmHg 85%
    16:00 -9°C° 0.2 mm 3 mps 469 mmHg 86%
    17:00 -10°C° 0.2 mm 3 mps 468 mmHg 88%
    18:00 -12°C° 0.2 mm 3 mps 468 mmHg 87%
    19:00 -14°C° 0.2 mm 3 mps 467 mmHg 87%
    20:00 -17°C° 0.2 mm 4 mps 466 mmHg 86%
    21:00 -16°C° 0 mm 3 mps 466 mmHg 86%
    22:00 -16°C° 0 mm 3 mps 466 mmHg 85%
    23:00 -16°C° 0 mm 3 mps 466 mmHg 85%

    25 January, Saturday

    Time Temperature Precipitation Wind Pressure Humidity
    00:00 -17°C° 0 mm 3 mps 466 mmHg 85%
    01:00 -17°C° 0 mm 3 mps 465 mmHg 86%
    02:00 -17°C° 0 mm 3 mps 465 mmHg 86%
    03:00 -17°C° 0.1 mm 3 mps 465 mmHg 87%
    04:00 -16°C° 0.1 mm 2 mps 464 mmHg 87%
    05:00 -17°C° 0.1 mm 2 mps 464 mmHg 87%
    06:00 -17°C° 0 mm 2 mps 464 mmHg 88%
    07:00 -18°C° 0 mm 2 mps 463 mmHg 88%
    08:00 -18°C° 0 mm 2 mps 463 mmHg 88%
    09:00 -16°C° 0 mm 2 mps 464 mmHg 84%
    10:00 -14°C° 0 mm 2 mps 466 mmHg 79%
    11:00 -12°C° 0 mm 2 mps 468 mmHg 75%
    12:00 -10°C° 0 mm 2 mps 468 mmHg 73%
    13:00 -9°C° 0 mm 2 mps 468 mmHg 71%
    14:00 -9°C° 0 mm 2 mps 468 mmHg 69%
    15:00 -10°C° 0 mm 1 mps 467 mmHg 74%
    16:00 -11°C° 0 mm 1 mps 465 mmHg 80%
    17:00 -13°C° 0 mm 1 mps 464 mmHg 85%
    18:00 -17°C° 0 mm 2 mps 463 mmHg 85%
    19:00 -18°C° 0 mm 2 mps 462 mmHg 84%
    20:00 -20°C° 0 mm 2 mps 462 mmHg 84%
    21:00 -20°C° 0 mm 2 mps 462 mmHg 80%
    22:00 -20°C° 0 mm 2 mps 462 mmHg 76%
    23:00 -23°C° 0 mm 3 mps 461 mmHg 73%

    26 January, Sunday

    Time Temperature Precipitation Wind Pressure Humidity
    00:00 -21°C° 0 mm 2 mps 461 mmHg 71%
    01:00 -21°C° 0 mm 2 mps 461 mmHg 70%
    02:00 -23°C° 0 mm 2 mps 461 mmHg 68%
    03:00 -23°C° 0 mm 2 mps 460 mmHg 70%
    04:00 -23°C° 0 mm 2 mps 460 mmHg 71%
    05:00 -24°C° 0 mm 2 mps 460 mmHg 72%
    06:00 -24°C° 0 mm 2 mps 460 mmHg 72%
    07:00 -24°C° 0 mm 2 mps 460 mmHg 72%
    08:00 -20°C° 0 mm 1 mps 461 mmHg 72%
    09:00 -18°C° 0 mm 1 mps 462 mmHg 70%
    10:00 -15°C° 0 mm 1 mps 464 mmHg 68%
    11:00 -13°C° 0 mm 1 mps 466 mmHg 65%
    12:00 -12°C° 0 mm 1 mps 466 mmHg 66%
    13:00 -11°C° 0 mm 1 mps 466 mmHg 68%
    14:00 -11°C° 0 mm 1 mps 466 mmHg 69%
    15:00 -12°C° 0 mm 1 mps 465 mmHg 75%
    16:00 -14°C° 0 mm 1 mps 464 mmHg 82%
    17:00 -15°C° 0 mm 1 mps 463 mmHg 89%
    18:00 -17°C° 0 mm 1 mps 462 mmHg 89%
    19:00 -18°C° 0 mm 1 mps 461 mmHg 90%
    20:00 -23°C° 0 mm 2 mps 461 mmHg 90%
    21:00 -23°C° 0 mm 2 mps 460 mmHg 88%
    22:00 -24°C° 0 mm 2 mps 460 mmHg 85%
    23:00 -25°C° 0 mm 2 mps 460 mmHg 83%
    Show more